Location: Via Auriletto, 13, 10098 Rivoli TO, Italia
(45.0746°N, 7.5214°E)
Time: 21:50:05
(UTC+02:00)

ESTCUBE 1 - Visible Passes

Search period start: 24 May 2019 00:00
Search period end: 03 June 2019 00:00
Orbit: 646 x 661 km, 98.0° (Epoch: 24 May)

Date Brightness Start Highest point End Pass type
(mag) Time Alt. Az. Time Alt. Az. Time Alt. Az.
24 May ? 01:18:57 18° W 01:19:13 18° W 01:22:20 10° NW visible
24 May ? 22:32:24 10° ENE 22:33:47 11° ENE 22:35:12 10° NE visible
25 May ? 00:09:07 62° SSE 00:09:52 90° SW 00:14:23 10° NNW visible
25 May ? 22:59:16 15° E 23:01:14 20° ENE 23:04:28 10° NNE visible
26 May ? 00:37:09 44° WSW 00:37:41 46° W 00:42:01 10° NNW visible
26 May ? 23:27:18 28° ESE 23:28:45 35° ENE 23:32:50 10° N visible
27 May ? 01:05:10 24° WSW 01:05:37 25° W 01:09:18 10° NW visible
27 May ? 23:55:20 48° SE 23:56:24 66° ENE 00:00:51 10° N visible
28 May ? 01:33:12 13° W 01:33:39 13° W 01:35:48 10° WNW visible
28 May ? 22:45:30 11° E 22:47:54 15° ENE 22:50:29 10° NNE visible
29 May ? 00:23:22 53° SSW 00:24:10 64° WSW 00:28:38 10° NNW visible
29 May ? 23:13:32 20° ESE 23:15:22 27° ENE 23:19:07 10° N visible
30 May ? 00:51:24 32° WSW 00:52:02 33° W 00:56:07 10° NNW visible
30 May ? 23:41:34 35° ESE 23:42:58 48° ENE 23:47:17 10° N visible
31 May ? 01:19:27 18° WSW 01:20:01 18° W 01:23:06 10° NW visible
31 May ? 22:33:04 10° ENE 22:34:35 12° ENE 22:36:07 10° NE visible
01 Jun ? 00:09:37 53° SSE 00:10:41 88° W 00:15:11 10° NNW visible
01 Jun ? 22:59:47 14° E 23:02:01 20° ENE 23:05:18 10° NNE visible
02 Jun ? 00:37:39 40° SW 00:38:30 45° W 00:42:49 10° NNW visible
02 Jun ? 23:27:49 26° ESE 23:29:33 36° ENE 23:33:40 10° N visible
